N8YZF Weather Reports


time (UTC)temp
C
wind
direction
speed
KPH
gust
KPH
rain 1hr
cm
rain 24hr
cm
rain mn
cm
humidity
%
barometer
mb
20260507142642 7 234 3.2 11.3 0.00 0.00 0.00 52 1010.0
20260507141552 7 267 3.2 11.3 0.00 0.00 0.00 53 1010.0
20260507141055 7 263 1.6 8.0 0.00 0.00 0.00 54 1009.9
20260507140551 7 290 1.6 8.0 0.00 0.00 0.00 54 1009.9
20260507140105 7 292 3.2 8.0 0.00 0.00 0.00 54 1009.9
20260507135555 7 283 3.2 9.7 0.00 0.00 0.00 54 1009.9
20260507135047 7 303 4.8 9.7 0.00 0.00 0.00 55 1009.9
20260507134544 7 304 3.2 8.0 0.00 0.00 0.00 55 1009.9
20260507134044 7 268 1.6 6.4 0.00 0.00 0.00 54 1009.9
20260507133831 7 293 1.6 4.8 0.00 0.00 0.00 55 1009.8
20260507133002 7 312 1.6 6.4 0.00 0.00 0.00 55 1009.8
20260507132755 7 276 1.6 6.4 0.00 0.00 0.00 55 1009.9
20260507132004 7 324 1.6 6.4 0.00 0.00 0.00 55 1009.9
20260507131501 7 325 0.0 3.2 0.00 0.00 0.00 59 1009.9
20260507131004 7 46 1.6 4.8 0.00 0.00 0.00 61 1009.9
20260507130502 7 197 1.6 4.8 0.00 0.00 0.00 61 1009.8
20260507130004 7 165 0.0 6.4 0.00 0.00 0.00 62 1009.8
20260507125458 7 165 1.6 6.4 0.00 0.00 0.00 61 1009.8
20260507124955 6 121 1.6 6.4 0.00 0.00 0.00 63 1009.7
20260507124453 6 188 1.6 3.2 0.00 0.00 0.00 64 1009.6
20260507123951 6 188 0.0 3.2 0.00 0.00 0.00 64 1009.5
20260507123358 5 188 1.6 4.8 0.00 0.00 0.00 67 1009.5
20260507122841 5 188 0.0 4.8 0.00 0.00 0.00 68 1009.4
20260507122308 5 223 0.0 4.8 0.00 0.00 0.00 70 1009.4
20260507121758 5 355 0.0 3.2 0.00 0.00 0.00 73 1009.4
20260507121247 4 319 0.0 1.6 0.00 0.00 0.00 78 1009.4
20260507120747 4 320 0.0 1.6 0.00 0.00 0.00 81 1009.3
20260507120245 3 320 0.0 0.0 0.00 0.00 0.00 84 1009.2
20260507115745 3 320 0.0 0.0 0.00 0.00 0.00 85 1009.1
20260507115535 2 319 0.0 0.0 0.00 0.00 0.00 88 1009.1
20260507115011 1 319 0.0 0.0 0.00 0.00 0.00 90 1009.0
20260507114155 1 319 0.0 0.0 0.00 0.00 0.00 90 1008.5
20260507113600 0 319 0.0 0.0 0.00 0.00 0.00 90 1008.4
20260507113104 0 319 0.0 0.0 0.00 0.00 0.00 89 1008.4
20260507112552 0 319 0.0 0.0 0.00 0.00 0.00 88 1008.3
20260507112047 0 319 0.0 0.0 0.00 0.00 0.00 88 1008.3
20260507111548 0 319 0.0 0.0 0.00 0.00 0.00 88 1008.3
20260507111046 0 319 0.0 0.0 0.00 0.00 0.00 87 1008.3
20260507110544 0 319 0.0 0.0 0.00 0.00 0.00 88 1008.3
20260507110005 0 319 0.0 0.0 0.00 0.00 0.00 87 1008.3
20260507105448 0 319 0.0 0.0 0.00 0.00 0.00 87 1008.3
20260507105135 0 319 0.0 0.0 0.00 0.00 0.00 86 1008.4
20260507104351 0 319 0.0 0.0 0.00 0.00 0.00 86 1008.3
20260507103802 1 319 0.0 0.0 0.00 0.00 0.00 86 1008.3
20260507103337 1 319 0.0 0.0 0.00 0.00 0.00 87 1008.3
20260507103326 1 319 0.0 0.0 0.00 0.00 0.00 86 1008.3
20260507102529 1 319 0.0 0.0 0.00 0.00 0.00 87 1008.3
20260507101806 1 319 0.0 0.0 0.00 0.00 0.00 87 1008.3
20260507100646 1 319 0.0 0.0 0.00 0.00 0.00 86 1008.3
20260507100145 1 319 0.0 0.0 0.00 0.00 0.00 86 1008.3
20260507095646 1 319 0.0 0.0 0.00 0.00 0.00 85 1008.4
20260507095105 1 319 0.0 0.0 0.00 0.00 0.00 84 1008.5
20260507094555 1 319 0.0 0.0 0.00 0.00 0.00 84 1008.5
20260507094045 1 319 0.0 0.0 0.00 0.00 0.00 84 1008.5
20260507093832 1 319 0.0 0.0 0.00 0.00 0.00 84 1008.5
20260507093002 1 319 0.0 0.0 0.00 0.00 0.00 84 1008.5
20260507092448 1 319 0.0 0.0 0.00 0.00 0.00 83 1008.5
20260507091947 1 319 0.0 0.0 0.00 0.00 0.00 83 1008.5
20260507091424 1 319 0.0 0.0 0.00 0.00 0.00 82 1008.6
20260507090907 1 319 0.0 0.0 0.00 0.00 0.00 82 1008.6
20260507090357 1 319 0.0 0.0 0.00 0.00 0.00 81 1008.6
20260507090142 1 319 0.0 0.0 0.00 0.00 0.00 81 1008.7
20260507085306 1 319 0.0 0.0 0.00 0.00 0.00 81 1008.7
20260507085102 4 316 1.6 3.2 0.00 0.00 0.00 68 1009.6
20260507085033 3 279 0.0 0.0 0.00 0.00 0.00 79 1009.4
20260507085026 3 279 0.0 0.0 0.00 0.00 0.00 79 1009.4
20260507085016 2 319 0.0 0.0 0.00 0.00 0.00 82 1008.8
20260507084956 2 319 0.0 0.0 0.00 0.00 0.00 82 1008.8
20260507084913 2 319 0.0 0.0 0.00 0.00 0.00 81 1008.8
20260507084825 2 319 0.0 0.0 0.00 0.00 0.00 81 1008.8
20260507084757 1 319 0.0 0.0 0.00 0.00 0.00 81 1008.7
20260507084733 2 319 0.0 0.0 0.00 0.00 0.00 80 1008.8
20260507084643 2 319 0.0 0.0 0.00 0.00 0.00 79 1008.8
20260507084548 2 319 0.0 0.0 0.00 0.00 0.00 78 1008.8
20260507084458 2 319 0.0 0.0 0.00 0.00 0.00 78 1008.8
20260507084409 2 319 0.0 0.0 0.00 0.00 0.00 78 1008.8
20260507084318 2 319 0.0 0.0 0.00 0.00 0.00 79 1009.1
20260507084249 2 319 0.0 0.0 0.00 0.00 0.00 81 1008.8
20260507084214 2 319 0.0 0.0 0.00 0.00 0.00 78 1009.1
20260507084124 2 319 0.0 0.0 0.00 0.00 0.00 77 1009.1
20260507084033 2 319 0.0 0.0 0.00 0.00 0.00 77 1009.1
20260507083947 2 319 0.0 0.0 0.00 0.00 0.00 76 1009.1
20260507083900 2 319 0.0 0.0 0.00 0.00 0.00 75 1009.1
20260507083814 3 319 0.0 0.0 0.00 0.00 0.00 74 1009.2
20260507083722 3 319 0.0 0.0 0.00 0.00 0.00 74 1009.3
20260507083701 2 319 0.0 0.0 0.00 0.00 0.00 82 1008.8
20260507083621 3 319 0.0 0.0 0.00 0.00 0.00 73 1009.3
20260507083523 3 319 0.0 0.0 0.00 0.00 0.00 72 1009.3
20260507083435 3 319 0.0 0.0 0.00 0.00 0.00 71 1009.3
20260507083340 3 319 0.0 0.0 0.00 0.00 0.00 72 1009.4
20260507083257 3 319 0.0 0.0 0.00 0.00 0.00 72 1009.4
20260507083204 2 319 0.0 0.0 0.00 0.00 0.00 82 1008.8
20260507083157 3 319 0.0 0.0 0.00 0.00 0.00 71 1009.5
20260507083101 3 319 0.0 0.0 0.00 0.00 0.00 69 1009.5
20260507083006 3 319 0.0 0.0 0.00 0.00 0.00 69 1009.5
20260507082917 4 319 0.0 3.2 0.00 0.00 0.00 68 1009.5
20260507082828 4 319 0.0 3.2 0.00 0.00 0.00 68 1009.6
20260507082734 2 319 0.0 0.0 0.00 0.00 0.00 82 1008.7
20260507082115 4 316 1.6 3.2 0.00 0.00 0.00 69 1009.6
20260507082032 4 269 0.0 3.2 0.00 0.00 0.00 70 1009.6
20260507081942 4 292 0.0 3.2 0.00 0.00 0.00 71 1009.6
20260507081900 4 246 1.6 4.8 0.00 0.00 0.00 71 1009.6
20260507081810 3 246 1.6 4.8 0.00 0.00 0.00 75 1009.5
20260507081726 3 225 0.0 3.2 0.00 0.00 0.00 77 1009.4
20260507081626 2 319 0.0 0.0 0.00 0.00 0.00 82 1008.8
20260507035802 4 279 0.0 0.0 0.00 0.00 0.00 76 1009.4
20260507035248 4 279 0.0 0.0 0.00 0.00 0.00 76 1009.4
20260507034744 4 279 0.0 0.0 0.00 0.00 0.00 76 1009.4
20260507034239 4 279 0.0 0.0 0.00 0.00 0.00 75 1009.4
20260507033648 4 279 0.0 0.0 0.00 0.00 0.00 73 1009.4
20260507033148 4 279 0.0 0.0 0.00 0.00 0.00 71 1009.4
20260507032652 4 279 0.0 0.0 0.00 0.00 0.00 69 1009.5
20260507032143 4 279 0.0 0.0 0.00 0.00 0.00 69 1009.5
20260507031602 4 279 0.0 0.0 0.00 0.00 0.00 69 1009.5
20260507031047 4 279 0.0 0.0 0.00 0.00 0.00 69 1009.7
20260507030750 4 279 0.0 0.0 0.00 0.00 0.00 68 1009.7
20260507030004 5 279 0.0 0.0 0.00 0.00 0.00 68 1009.8
20260507025453 5 279 0.0 0.0 0.00 0.00 0.00 68 1009.8
20260507024857 5 279 0.0 0.0 0.00 0.00 0.00 66 1009.8
20260507024625 5 279 0.0 0.0 0.00 0.00 0.00 67 1009.7
20260507024042 5 279 0.0 0.0 0.00 0.00 0.00 65 1009.7
20260507023245 5 279 0.0 0.0 0.00 0.00 0.00 66 1009.7
20260507022743 5 279 0.0 0.0 0.00 0.00 0.00 66 1009.5
20260507022437 5 279 0.0 0.0 0.00 0.00 0.00 67 1009.5
20260507021649 5 279 0.0 0.0 0.00 0.00 0.00 65 1009.5
20260507021048 5 279 0.0 0.0 0.00 0.00 0.00 64 1009.5
20260507020602 5 279 0.0 0.0 0.00 0.00 0.00 63 1009.5
20260507020105 5 279 0.0 0.0 0.00 0.00 0.00 61 1009.5
20260507015550 5 279 0.0 0.0 0.00 0.00 0.00 61 1009.5
20260507015049 5 279 0.0 0.0 0.00 0.00 0.00 60 1009.5
20260507014737 5 279 0.0 0.0 0.00 0.00 0.00 60 1009.4
20260507013940 5 279 0.0 0.0 0.00 0.00 0.00 59 1009.5
20260507013400 5 279 0.0 0.0 0.00 0.00 0.00 59 1009.5
20260507012859 5 279 0.0 0.0 0.00 0.00 0.00 58 1009.5
20260507012636 6 279 0.0 0.0 0.00 0.00 0.00 57 1009.5
20260507011756 6 279 0.0 0.0 0.00 0.00 0.00 56 1009.6
20260507011247 6 279 0.0 1.6 0.00 0.00 0.00 55 1009.3
20260507010750 6 279 0.0 3.2 0.00 0.00 0.00 54 1009.3
20260507010238 7 279 1.6 8.0 0.00 0.00 0.00 52 1009.2
20260507010225 7 279 0.0 3.2 0.00 0.00 0.00 53 1009.4
20260507005149 7 279 1.6 8.0 0.00 0.00 0.00 51 1009.3
20260507004951 7 252 1.6 8.0 0.00 0.00 0.00 50 1009.3
20260507004148 8 292 1.6 8.0 0.00 0.00 0.00 50 1009.3
20260507003650 8 269 1.6 8.0 0.00 0.00 0.00 49 1009.3
20260507003135 8 259 3.2 9.7 0.00 0.00 0.00 48 1009.4
20260507002610 8 232 3.2 9.7 0.00 0.00 0.00 47 1009.3
20260507002109 8 278 3.2 9.7 0.00 0.00 0.00 46 1009.3
20260507001717 9 263 6.4 12.9 0.00 0.00 0.00 45 1009.1
20260507001655 8 294 4.8 12.9 0.00 0.00 0.00 46 1009.3
20260507000911 9 271 6.4 14.5 0.00 0.00 0.00 44 1009.1
20260507000106 9 257 6.4 14.5 0.00 0.00 0.00 44 1009.1
20260506235603 10 229 4.8 11.3 0.00 0.00 0.00 43 1009.2
20260506235104 10 288 6.4 16.1 0.00 0.00 0.00 43 1009.2
20260506234604 10 300 4.8 16.1 0.00 0.00 0.00 43 1009.2
20260506234410 10 276 3.2 12.9 0.00 0.00 0.00 42 1009.0
20260506233550 10 340 3.2 12.9 0.00 0.00 0.00 43 1009.1
20260506233050 10 337 3.2 12.9 0.00 0.00 0.00 44 1009.1
20260506232552 10 255 3.2 11.3 0.00 0.00 0.00 43 1009.1
20260506232049 10 297 3.2 12.9 0.00 0.00 0.00 43 1009.1
20260506231546 10 321 4.8 16.1 0.00 0.00 0.00 43 1009.1
20260506231339 10 328 4.8 16.1 0.00 0.00 0.00 43 1009.1
20260506230532 10 282 6.4 19.3 0.00 0.00 0.00 42 1009.1
20260506230010 10 266 4.8 22.5 0.00 0.00 0.00 42 1009.1
20260506225509 10 246 4.8 22.5 0.00 0.00 0.00 42 1009.1
20260506225009 10 307 6.4 17.7 0.00 0.00 0.00 43 1009.1
20260506224512 10 271 4.8 17.7 0.00 0.00 0.00 41 1009.1
20260506224008 10 253 4.8 14.5 0.00 0.00 0.00 42 1009.2
20260506223505 10 300 6.4 14.5 0.00 0.00 0.00 42 1009.1
20260506223312 10 276 6.4 20.9 0.00 0.00 0.00 41 1009.1
20260506222505 10 213 6.4 20.9 0.00 0.00 0.00 41 1009.1
20260506222005 10 271 8.0 19.3 0.00 0.00 0.00 41 1009.1
20260506221502 10 280 6.4 19.3 0.00 0.00 0.00 40 1009.0
20260506221003 10 279 4.8 16.1 0.00 0.00 0.00 41 1009.1
20260506220804 10 330 4.8 20.9 0.00 0.00 0.00 41 1009.1
20260506220002 10 243 6.4 20.9 0.00 0.00 0.00 40 1008.8
20260506215505 11 333 4.8 16.1 0.00 0.00 0.00 41 1008.8
20260506215002 11 261 4.8 9.7 0.00 0.00 0.00 40 1008.8
20260506214807 11 333 3.2 8.0 0.00 0.00 0.00 41 1008.9
20260506213958 10 286 4.8 14.5 0.00 0.00 0.00 43 1008.9
20260506213458 10 292 6.4 17.7 0.00 0.00 0.00 40 1008.9
20260506213307 11 281 4.8 20.9 0.00 0.00 0.00 40 1009.0
20260506212457 11 259 6.4 20.9 0.00 0.00 0.00 40 1009.0
20260506211956 10 335 8.0 20.9 0.00 0.00 0.00 43 1009.0
20260506211806 10 200 9.7 19.3 0.00 0.00 0.00 41 1009.0
20260506210955 10 240 8.0 17.7 0.00 0.00 0.00 40 1009.0
20260506210453 10 276 8.0 19.3 0.00 0.00 0.00 40 1009.0
20260506205952 10 286 8.0 19.3 0.00 0.00 0.00 41 1008.9
20260506205454 11 281 6.4 16.1 0.00 0.00 0.00 40 1008.9
20260506204953 11 236 6.4 16.1 0.00 0.00 0.00 40 1008.9
20260506204452 11 243 4.8 14.5 0.00 0.00 0.00 41 1009.0
20260506203951 11 243 3.2 12.9 0.00 0.00 0.00 39 1009.0
20260506203449 11 294 3.2 12.9 0.00 0.00 0.00 40 1009.0
20260506202949 11 284 6.4 17.7 0.00 0.00 0.00 40 1009.1
20260506202745 11 30 6.4 17.7 0.00 0.00 0.00 37 1009.2
20260506201912 12 343 8.0 17.7 0.00 0.00 0.00 40 1009.3
20260506201413 11 240 6.4 17.7 0.00 0.00 0.00 37 1009.2
20260506200911 11 309 4.8 14.5 0.00 0.00 0.00 41 1009.2
20260506200413 11 350 3.2 12.9 0.00 0.00 0.00 40 1009.1
20260506195902 11 256 3.2 11.3 0.00 0.00 0.00 41 1009.1
20260506195400 11 298 4.8 11.3 0.00 0.00 0.00 41 1009.1
20260506194858 11 305 4.8 11.3 0.00 0.00 0.00 40 1009.1
20260506194359 11 309 4.8 14.5 0.00 0.00 0.00 41 1009.1
20260506193858 10 214 6.4 17.7 0.00 0.00 0.00 40 1009.1
20260506193701 11 266 8.0 22.5 0.00 0.00 0.00 40 1009.1
20260506192900 11 295 8.0 22.5 0.00 0.00 0.00 39 1009.1
20260506192354 11 228 8.0 19.3 0.00 0.00 0.00 38 1009.2
20260506192205 11 215 6.4 19.3 0.00 0.00 0.00 39 1009.1
20260506191351 10 220 4.8 14.5 0.00 0.00 0.00 39 1009.1
20260506190852 10 247 4.8 14.5 0.00 0.00 0.00 41 1009.1
20260506190353 10 323 4.8 16.1 0.00 0.00 0.00 41 1009.1
20260506185837 10 348 6.4 19.3 0.00 0.00 0.00 42 1009.1
20260506185313 11 195 6.4 19.3 0.00 0.00 0.00 41 1009.1
20260506184815 11 321 6.4 17.7 0.00 0.00 0.00 41 1009.1
20260506184313 11 286 4.8 12.9 0.00 0.00 0.00 40 1009.2
20260506183811 11 273 4.8 17.7 0.00 0.00 0.00 42 1009.3
20260506183608 11 288 6.4 17.7 0.00 0.00 0.00 46 1009.2
20260506182812 10 273 6.4 20.9 0.00 0.00 0.00 43 1009.2
20260506182308 10 229 6.4 22.5 0.00 0.00 0.00 43 1009.2
20260506182112 10 304 8.0 22.5 0.00 0.00 0.00 41 1009.2
20260506181308 10 240 8.0 19.3 0.00 0.00 0.00 41 1009.3
20260506180806 10 237 6.4 16.1 0.00 0.00 0.00 43 1009.3
20260506180305 10 263 6.4 29.0 0.00 0.00 0.00 42 1009.2
20260506175805 10 306 6.4 29.0 0.00 0.00 0.00 43 1009.5
20260506175306 10 257 4.8 14.5 0.00 0.00 0.00 43 1009.5
20260506174804 10 281 1.6 14.5 0.00 0.00 0.00 43 1009.5
20260506174253 10 301 3.2 9.7 0.00 0.00 0.00 44 1009.5
20260506173755 10 343 4.8 12.9 0.00 0.00 0.00 44 1009.4
20260506173255 10 245 4.8 12.9 0.00 0.00 0.00 42 1009.5
20260506173104 10 272 3.2 11.3 0.00 0.00 0.00 44 1009.5
20260506172253 10 342 4.8 12.9 0.00 0.00 0.00 44 1009.5
20260506172059 10 274 3.2 12.9 0.00 0.00 0.00 40 1009.5
20260506171550 10 213 4.8 9.7 0.00 0.00 0.00 43 1009.5
20260506170751 10 300 6.4 12.9 0.00 0.00 0.00 41 1009.6
20260506170555 10 209 6.4 12.9 0.00 0.00 0.00 42 1009.6
20260506165744 10 286 4.8 11.3 0.00 0.00 0.00 44 1009.6
20260506165240 10 244 3.2 11.3 0.00 0.00 0.00 44 1009.6
20260506164737 10 294 3.2 11.3 0.00 0.00 0.00 45 1009.6
20260506164239 10 331 3.2 11.3 0.00 0.00 0.00 46 1009.8
20260506163703 9 306 1.6 8.0 0.00 0.00 0.00 47 1009.8
20260506163156 9 11 3.2 8.0 0.00 0.00 0.00 47 1009.8
20260506162654 9 315 3.2 8.0 0.00 0.00 0.00 48 1009.9
20260506162205 9 295 4.8 11.3 0.00 0.00 0.00 48 1009.8
20260506161701 9 271 6.4 11.3 0.00 0.00 0.00 47 1009.9
20260506161201 9 42 3.2 9.7 0.00 0.00 0.00 49 1009.9
20260506161018 9 331 1.6 6.4 0.00 0.00 0.00 52 1009.9
20260506160146 9 319 1.6 6.4 0.00 0.00 0.00 50 1009.9
20260506155950 9 340 3.2 9.7 0.00 0.00 0.00 50 1009.9
20260506155059 9 193 3.2 9.7 0.00 0.00 0.00 51 1009.9
20260506154601 8 271 3.2 8.0 0.00 0.00 0.00 53 1009.8
20260506154355 8 216 6.4 14.5 0.00 0.00 0.00 53 1009.8
20260506153600 8 202 6.4 14.5 0.00 0.00 0.00 51 1009.8
20260506153056 8 210 6.4 14.5 0.00 0.00 0.00 51 1009.8
20260506152554 9 254 4.8 12.9 0.00 0.00 0.00 48 1009.8
20260506152053 9 206 4.8 11.3 0.00 0.00 0.00 51 1009.8
20260506151555 9 293 3.2 11.3 0.00 0.00 0.00 49 1009.9
20260506151356 9 243 1.6 6.4 0.00 0.00 0.00 51 1009.7
20260506150551 9 335 1.6 6.4 0.00 0.00 0.00 50 1009.7
20260506150404 9 42 1.6 8.0 0.00 0.00 0.00 53 1009.7
20260506145550 8 91 1.6 8.0 0.00 0.00 0.00 53 1009.8
20260506145055 8 204 1.6 6.4 0.00 0.00 0.00 52 1009.8
20260506144541 8 155 1.6 8.0 0.00 0.00 0.00 55 1009.8
20260506144041 8 244 1.6 8.0 0.00 0.00 0.00 57 1009.7
20260506143535 8 65 1.6 6.4 0.00 0.00 0.00 58 1009.7